"startDT [UTC]","vpos","CH4 [ppm]","stdev(CH4) [ppm]","CO2 [ppm]","stdev(CO2) [ppm]","H2O_reported [%]","stdev(H2O_reported)","CavityPressure [torr]","CavityTemp [C]","OutletValve","CH4_dry [ppm]","CO2_dry [ppm]","DasTemp [C]","EtalonTemp [C]","WarmBoxTemp [C]","MPVPosition","T_ECpre [C]","T_EC1 [C]","T_EC2 [C]","p_inlet [hPa]","p_in [hPa]","p_out [hPa]","T_inlet [C]","RH_inlet [%]","dwpt_inlet [C]","T_vent [C]","RH_vent [%]","dwpt_vent [C]","flow_vent [l min-1]","flow_inlet [l min-1]","dwpt_sample [C]","T_room [C]"
2015-03-11 00:00:00,3.0,1.87985,0.01432,399.419,2.404,0.0416,0.0627,139.897,45.000,31372.21996,1.88274,399.789,33.938,45.068,45.000,0.00,0.09,-272.70,-272.75,-2,500,-2,19.9,6.1,-18.5,20.3,6.1,-18.3,5.73,1.94,-14.8,26.6
2015-03-11 00:01:00,3.0,1.87600,0.00043,397.352,0.070,0.0109,0.0018,139.996,45.000,31138.83550,1.87621,397.407,33.936,45.068,45.000,0.00,0.09,-272.70,-272.76,-3,500,-2,19.9,6.2,-18.5,20.2,6.1,-18.3,5.73,2.00,-14.8,26.6
2015-03-11 00:02:00,3.0,1.87588,0.00033,397.344,0.054,0.0122,0.0022,139.999,45.000,31089.15713,1.87610,397.399,33.927,45.068,45.000,0.00,0.09,-272.71,-272.76,-3,501,-1,19.9,6.2,-18.4,20.2,6.2,-18.2,5.73,1.97,-14.8,26.6
2015-03-11 00:03:00,3.0,1.87592,0.00032,397.534,0.053,0.0094,0.0017,140.000,45.000,31050.82253,1.87611,397.575,33.880,45.068,45.000,0.00,0.09,-272.69,-272.75,-3,501,-1,19.8,6.2,-18.3,20.2,6.2,-18.1,5.73,1.91,-14.8,26.6
2015-03-11 00:04:00,3.0,1.87589,0.00032,397.630,0.034,0.0078,0.0021,140.000,45.000,31018.81687,1.87602,397.667,33.875,45.068,45.000,0.00,0.09,-272.70,-272.75,-3,501,-1,19.8,6.2,-18.4,20.2,6.2,-18.2,5.73,1.89,-14.8,26.6
2015-03-11 00:05:00,3.0,1.87563,0.00040,397.638,0.031,0.0059,0.0019,140.003,45.000,30996.68102,1.87576,397.666,33.864,45.068,45.000,0.00,0.09,-272.70,-272.76,-2,502,-2,19.9,6.2,-18.5,20.2,6.2,-18.2,5.73,1.92,-14.8,26.6
2015-03-11 00:06:00,3.0,1.87619,0.00038,397.640,0.029,0.0039,0.0021,140.001,45.000,30973.66262,1.87623,397.659,33.824,45.068,45.000,0.00,0.09,-272.70,-272.76,-3,503,-1,19.9,6.2,-18.4,20.3,6.1,-18.3,5.73,1.95,-14.7,26.7
2015-03-11 00:07:00,3.0,1.87576,0.00037,397.620,0.037,0.0035,0.0015,139.998,45.000,30959.43062,1.87584,397.636,33.814,45.068,45.000,0.00,0.09,-272.69,-272.75,-3,503,-1,19.9,6.2,-18.4,20.3,6.1,-18.2,5.73,1.97,-14.8,26.7
2015-03-11 00:08:00,3.0,1.87580,0.00036,397.633,0.020,0.0020,0.0016,139.998,45.000,30946.14208,1.87583,397.644,33.804,45.068,45.000,0.00,0.09,-272.70,-272.76,-2,504,-2,19.9,6.2,-18.3,20.3,6.2,-18.1,5.73,1.99,-14.7,26.7
2015-03-11 00:09:00,3.0,1.87574,0.00031,397.640,0.030,0.0021,0.0023,140.000,45.000,30935.43415,1.87579,397.650,33.762,45.068,45.000,0.00,0.09,-272.70,-272.76,-2,504,-1,20.0,6.2,-18.3,20.3,6.2,-18.1,5.73,1.98,-14.7,26.7
2015-03-11 00:10:00,3.0,1.87582,0.00027,397.644,0.035,0.0022,0.0017,139.999,45.000,30925.52317,1.87585,397.654,33.750,45.068,45.000,0.00,0.09,-272.69,-272.76,-3,505,-1,20.0,6.2,-18.2,20.3,6.2,-18.0,5.73,1.96,-14.7,26.7
2015-03-11 00:11:00,3.0,1.87599,0.00032,397.635,0.026,0.0018,0.0014,140.001,45.000,30919.86936,1.87603,397.644,33.747,45.068,45.000,0.00,0.09,-272.70,-272.76,-3,505,-2,20.0,6.2,-18.3,20.3,6.2,-18.1,5.73,1.92,-14.7,26.8
2015-03-11 00:12:00,3.0,1.87625,0.00030,397.643,0.021,0.0000,0.0017,140.001,45.000,30912.80887,1.87622,397.643,33.703,45.068,45.000,0.00,0.09,-272.70,-272.76,-2,506,-2,20.0,6.1,-18.4,20.3,6.1,-18.2,5.73,1.90,-14.7,26.8
2015-03-11 00:13:00,3.0,1.87604,0.00022,397.673,0.034,0.0013,0.0021,140.002,45.000,30908.43690,1.87609,397.678,33.689,45.068,45.000,0.00,0.09,-272.70,-272.75,-2,507,-2,20.0,6.2,-18.3,20.3,6.1,-18.2,5.73,1.92,-14.7,26.8
2015-03-11 00:14:00,3.0,1.87579,0.00028,397.670,0.027,0.0001,0.0018,139.998,45.000,30905.54718,1.87579,397.671,33.685,45.068,45.000,0.00,0.09,-272.70,-272.75,-3,507,-2,20.1,6.2,-18.2,20.4,6.2,-18.0,5.73,1.95,-14.7,26.8
2015-03-11 00:15:00,3.0,1.87588,0.00040,397.660,0.025,0.0010,0.0015,140.000,45.000,30904.27515,1.87591,397.667,33.666,45.068,45.000,0.00,0.09,-272.71,-272.76,-3,507,-2,20.1,6.3,-18.1,20.4,6.3,-17.9,5.73,1.98,-14.7,26.8
2015-03-11 00:16:00,3.0,1.87608,0.00031,397.649,0.030,0.0008,0.0019,140.001,45.000,30902.07858,1.87606,397.651,33.633,45.068,45.000,0.00,0.09,-272.70,-272.76,-2,508,-2,20.2,6.3,-18.0,20.4,6.3,-17.9,5.73,1.99,-14.7,26.9
2015-03-11 00:17:00,3.0,1.87612,0.00036,397.673,0.022,0.0003,0.0017,140.000,45.000,30900.05016,1.87614,397.674,33.626,45.068,45.000,0.00,0.09,-272.70,-272.76,-2,508,-2,20.2,6.3,-17.9,20.4,6.3,-17.8,5.73,1.99,-14.7,26.8
2015-03-11 00:18:00,3.0,1.87583,0.00038,397.678,0.022,0.0002,0.0017,140.000,45.000,30899.05886,1.87583,397.678,33.625,45.068,45.000,0.00,0.09,-272.70,-272.76,-3,508,-2,20.2,6.3,-17.9,20.5,6.3,-17.7,5.73,1.98,-14.7,26.9
2015-03-11 00:19:00,3.0,1.87585,0.00025,397.674,0.035,0.0014,0.0017,140.001,45.000,30898.20942,1.87587,397.680,33.623,45.067,45.000,0.00,0.09,-272.70,-272.75,-2,509,-2,20.3,6.3,-17.9,20.5,6.3,-17.7,5.73,1.95,-14.7,26.9
2015-03-11 00:20:00,0.0,1.92937,0.00916,404.784,1.700,0.1730,0.0497,140.096,45.000,33735.69063,1.93064,405.473,33.625,45.067,45.000,0.00,0.09,-272.69,-272.75,-3,957,-2,20.3,6.4,-17.8,20.5,6.4,-17.6,5.73,1.99,-14.7,26.9
2015-03-11 00:21:00,0.0,1.93134,0.00032,405.251,0.032,0.1949,0.0020,140.005,45.000,33861.20476,1.93507,406.206,33.625,45.067,45.000,0.00,0.09,-272.70,-272.76,-3,960,-2,20.3,6.3,-17.8,20.5,6.3,-17.7,5.73,1.94,-14.7,26.9
2015-03-11 00:22:00,0.0,1.93149,0.00038,405.253,0.029,0.1950,0.0016,140.005,45.000,33913.97034,1.93521,406.208,33.626,45.067,45.000,0.00,0.09,-272.70,-272.76,-2,961,-2,20.4,6.3,-17.9,20.5,6.3,-17.7,5.73,1.95,-14.7,26.9
2015-03-11 00:23:00,0.0,1.93132,0.00047,405.264,0.030,0.1952,0.0013,140.000,45.000,33955.92814,1.93504,406.218,33.624,45.067,44.999,0.00,0.09,-272.70,-272.75,-3,962,-2,20.4,6.3,-17.9,20.6,6.3,-17.8,5.73,1.99,-14.7,26.9
2015-03-11 00:24:00,0.0,1.93139,0.00029,405.261,0.039,0.1959,0.0016,140.004,45.000,33996.38479,1.93513,406.220,33.615,45.067,44.999,0.00,0.09,-272.69,-272.76,-2,962,-2,20.4,6.3,-17.9,20.6,6.3,-17.8,5.73,2.01,-14.7,26.9
2015-03-11 00:25:00,0.0,1.93144,0.00035,405.284,0.026,0.1978,0.0018,140.003,45.000,34024.58611,1.93523,406.253,33.620,45.067,45.000,0.00,0.09,-272.70,-272.76,-2,961,-2,20.4,6.3,-17.9,20.6,6.3,-17.7,5.73,2.02,-14.7,26.9
2015-03-11 00:26:00,0.0,1.93152,0.00029,405.259,0.017,0.1967,0.0017,140.002,45.000,34050.99252,1.93526,406.223,33.620,45.067,44.999,0.00,0.09,-272.70,-272.76,-2,960,-2,20.4,6.3,-17.8,20.6,6.3,-17.7,5.73,1.99,-14.7,26.9
2015-03-11 00:27:00,0.0,1.93142,0.00040,405.241,0.035,0.1989,0.0016,140.002,45.000,34071.09534,1.93521,406.214,33.607,45.067,45.000,0.00,0.09,-272.69,-272.75,-3,962,-2,20.4,6.3,-17.8,20.6,6.3,-17.7,5.73,1.96,-14.7,26.9
2015-03-11 00:28:00,0.0,1.93150,0.00039,405.263,0.032,0.1974,0.0016,139.999,45.000,34091.69154,1.93526,406.228,33.571,45.067,44.999,0.00,0.09,-272.70,-272.76,-2,963,-2,20.4,6.3,-17.8,20.6,6.3,-17.6,5.73,1.93,-14.7,26.9
2015-03-11 00:29:00,0.0,1.93141,0.00044,405.274,0.045,0.1972,0.0015,140.001,45.000,34108.83130,1.93520,406.241,33.563,45.067,45.000,0.00,0.09,-272.70,-272.76,-2,962,-2,20.4,6.3,-17.8,20.6,6.3,-17.7,5.73,1.93,-14.7,26.9
2015-03-11 00:30:00,0.0,1.93136,0.00035,405.281,0.030,0.1968,0.0016,140.000,45.000,34122.53002,1.93510,406.244,33.563,45.067,45.000,0.00,0.09,-272.70,-272.75,-2,962,-2,20.4,6.3,-17.9,20.7,6.3,-17.7,5.73,1.98,-14.7,27.0
2015-03-11 00:31:00,0.0,1.93165,0.00039,405.300,0.031,0.1974,0.0017,139.998,45.000,34133.39029,1.93541,406.267,33.567,45.067,45.000,0.00,0.09,-272.70,-272.76,-3,963,-2,20.4,6.3,-17.8,20.7,6.3,-17.7,5.73,1.99,-14.7,27.0
2015-03-11 00:32:00,0.0,1.93210,0.00029,405.317,0.032,0.1965,0.0019,140.004,45.000,34143.86197,1.93583,406.279,33.585,45.067,45.000,0.00,0.09,-272.70,-272.76,-2,964,-2,20.4,6.2,-17.9,20.7,6.3,-17.7,5.73,2.01,-14.7,27.0
2015-03-11 00:33:00,0.0,1.93201,0.00036,405.326,0.025,0.1972,0.0014,140.003,45.000,34152.91000,1.93581,406.292,33.592,45.067,45.000,0.00,0.09,-272.70,-272.75,-2,962,-2,20.4,6.3,-17.9,20.7,6.2,-17.8,5.73,2.02,-14.7,27.0
2015-03-11 00:34:00,0.0,1.93201,0.00033,405.330,0.027,0.1965,0.0020,140.000,45.000,34162.33181,1.93576,406.293,33.575,45.067,45.000,0.00,0.09,-272.69,-272.75,-2,964,-2,20.5,6.2,-17.9,20.7,6.2,-17.8,5.73,2.01,-14.7,27.0
2015-03-11 00:35:00,0.0,1.93207,0.00035,405.340,0.030,0.1979,0.0016,140.000,45.000,34168.29516,1.93583,406.308,33.572,45.067,45.000,0.00,0.09,-272.70,-272.76,-1,964,-2,20.4,6.3,-17.8,20.7,6.2,-17.7,5.73,1.98,-14.7,26.9
2015-03-11 00:36:00,0.0,1.93251,0.00032,405.346,0.012,0.1997,0.0017,140.000,45.000,34172.37534,1.93631,406.324,33.565,45.067,45.000,0.00,0.09,-272.70,-272.76,-2,964,-2,20.4,6.3,-17.7,20.7,6.3,-17.6,5.73,1.98,-14.7,26.9
2015-03-11 00:37:00,0.0,1.93253,0.00029,405.319,0.042,0.2008,0.0017,140.002,45.000,34180.02569,1.93637,406.303,33.566,45.067,45.000,0.00,0.09,-272.69,-272.76,-2,965,-2,20.5,6.4,-17.6,20.7,6.3,-17.5,5.73,1.96,-14.7,27.0
2015-03-11 00:38:00,0.0,1.93213,0.00048,405.321,0.031,0.2024,0.0019,140.002,45.000,34188.23730,1.93602,406.313,33.581,45.068,45.000,0.00,0.09,-272.70,-272.76,-1,964,-2,20.4,6.4,-17.6,20.7,6.4,-17.4,5.73,1.97,-14.7,27.0
2015-03-11 00:39:00,0.0,1.93225,0.00033,405.286,0.033,0.2028,0.0015,139.999,45.000,34192.20552,1.93608,406.279,33.572,45.067,45.000,0.00,0.09,-272.70,-272.76,-2,965,-2,20.4,6.4,-17.5,20.7,6.4,-17.4,5.73,1.96,-14.7,27.0
2015-03-11 00:40:00,0.0,1.93228,0.00031,405.301,0.032,0.2038,0.0018,139.999,45.000,34196.34045,1.93620,406.299,33.567,45.067,45.000,0.00,0.09,-272.70,-272.75,-1,964,-2,20.5,6.5,-17.5,20.7,6.4,-17.4,5.73,1.96,-14.7,27.0
2015-03-11 00:41:00,0.0,1.93195,0.00044,405.300,0.028,0.2034,0.0015,140.002,45.000,34203.61420,1.93584,406.298,33.566,45.068,45.000,0.00,0.09,-272.70,-272.75,-1,966,-2,20.5,6.4,-17.5,20.7,6.4,-17.3,5.73,1.97,-14.7,27.0
2015-03-11 00:42:00,0.0,1.93202,0.00036,405.303,0.030,0.2041,0.0015,140.002,45.000,34208.31606,1.93592,406.301,33.570,45.068,45.000,0.00,0.09,-272.70,-272.76,-0,964,-2,20.5,6.5,-17.4,20.7,6.4,-17.3,5.73,1.99,-14.7,27.0
2015-03-11 00:43:00,0.0,1.93214,0.00026,405.306,0.026,0.2042,0.0016,139.997,45.000,34209.10309,1.93604,406.308,33.570,45.068,45.000,0.00,0.09,-272.70,-272.76,-1,965,-3,20.5,6.5,-17.4,20.8,6.4,-17.3,5.73,1.99,-14.7,27.0
2015-03-11 00:44:00,0.0,1.93228,0.00047,405.299,0.038,0.2048,0.0022,139.998,45.000,34216.17613,1.93619,406.301,33.612,45.068,45.000,0.00,0.09,-272.70,-272.75,-3,965,-2,20.5,6.5,-17.4,20.7,6.4,-17.3,5.73,2.00,-14.7,27.0
2015-03-11 00:45:00,0.0,1.93238,0.00053,405.302,0.033,0.2045,0.0016,139.997,45.000,34219.63693,1.93629,406.305,33.623,45.067,45.000,0.00,0.09,-272.70,-272.76,-1,966,-4,20.5,6.5,-17.4,20.8,6.5,-17.3,5.73,2.00,-14.7,27.0
2015-03-11 00:46:00,0.0,1.93281,0.00036,405.314,0.029,0.2049,0.0013,139.999,45.000,34217.80585,1.93670,406.317,33.625,45.067,45.000,0.00,0.09,-272.70,-272.76,0,962,-0,20.5,6.5,-17.4,20.7,6.5,-17.3,5.73,2.00,-14.7,27.0
2015-03-11 00:47:00,0.0,1.93227,0.00041,405.312,0.036,0.2051,0.0021,140.000,45.000,34222.46919,1.93620,406.317,33.647,45.067,45.000,0.00,0.09,-272.70,-272.75,-0,966,-2,20.6,6.5,-17.4,20.8,6.5,-17.3,5.73,2.00,-14.7,27.0
2015-03-11 00:48:00,0.0,1.93231,0.00032,405.333,0.024,0.2049,0.0014,140.000,45.000,34225.63274,1.93626,406.336,33.689,45.068,45.000,0.00,0.09,-272.70,-272.75,-1,967,-2,20.6,6.5,-17.4,20.8,6.4,-17.3,5.73,2.01,-14.7,27.0
2015-03-11 00:49:00,0.0,1.93240,0.00040,405.328,0.031,0.2041,0.0015,139.998,45.000,34228.70805,1.93626,406.327,33.691,45.067,45.000,0.00,0.09,-272.70,-272.76,-1,965,-2,20.6,6.5,-17.4,20.8,6.5,-17.2,5.73,2.01,-14.8,27.0
2015-03-11 00:50:00,0.0,1.93279,0.00037,405.333,0.026,0.2050,0.0019,139.999,45.000,34230.44223,1.93671,406.337,33.711,45.067,45.000,0.00,0.09,-272.70,-272.76,-1,967,-2,20.6,6.4,-17.4,20.8,6.4,-17.3,5.73,2.01,-14.7,27.0
2015-03-11 00:51:00,0.0,1.93277,0.00037,405.341,0.019,0.2046,0.0017,139.997,45.000,34232.26691,1.93669,406.344,33.718,45.067,45.000,0.00,0.09,-272.69,-272.76,-1,965,-2,20.6,6.4,-17.4,20.8,6.4,-17.3,5.73,2.01,-14.7,27.1
2015-03-11 00:52:00,0.0,1.93268,0.00050,405.321,0.037,0.2044,0.0015,139.999,45.000,34233.92961,1.93661,406.322,33.754,45.068,45.000,0.00,0.09,-272.70,-272.77,-1,967,-2,20.6,6.4,-17.5,20.8,6.4,-17.3,5.73,2.00,-14.8,27.1
2015-03-11 00:53:00,0.0,1.93265,0.00033,405.327,0.037,0.2041,0.0015,139.997,45.000,34233.02615,1.93655,406.327,33.772,45.067,45.000,0.00,0.09,-272.70,-272.76,-1,966,-2,20.6,6.4,-17.4,20.8,6.4,-17.3,5.73,2.00,-14.7,27.1
2015-03-11 00:54:00,0.0,1.93244,0.00028,405.330,0.043,0.2044,0.0014,140.000,45.000,34234.24219,1.93635,406.331,33.816,45.067,45.000,0.00,0.09,-272.70,-272.75,-1,966,-2,20.6,6.4,-17.4,20.9,6.4,-17.3,5.73,1.99,-14.7,27.0
2015-03-11 00:55:00,0.0,1.93258,0.00030,405.346,0.038,0.2041,0.0016,140.001,45.000,34234.35770,1.93645,406.348,33.824,45.067,45.000,0.00,0.09,-272.70,-272.75,-1,965,-2,20.6,6.4,-17.5,20.9,6.4,-17.3,5.73,1.98,-14.8,27.0
2015-03-11 00:56:00,0.0,1.93277,0.00028,405.343,0.022,0.2041,0.0015,140.000,45.000,34235.39543,1.93669,406.343,33.869,45.067,45.000,0.00,0.09,-272.70,-272.76,-2,966,-2,20.6,6.4,-17.5,20.9,6.4,-17.3,5.73,1.98,-14.8,27.0
2015-03-11 00:57:00,0.0,1.93252,0.00041,405.337,0.031,0.2049,0.0015,140.000,45.000,34239.04081,1.93645,406.340,33.893,45.067,45.000,0.00,0.09,-272.70,-272.75,-1,965,-2,20.6,6.4,-17.5,20.9,6.4,-17.3,5.73,1.97,-14.8,27.1
2015-03-11 00:58:00,0.0,1.93248,0.00038,405.320,0.043,0.2058,0.0019,140.000,45.001,34238.87607,1.93640,406.327,33.902,45.067,45.000,0.00,0.09,-272.70,-272.75,-2,966,-2,20.6,6.5,-17.4,20.9,6.4,-17.3,5.73,1.96,-14.8,27.1
2015-03-11 00:59:00,0.0,1.93256,0.00028,405.342,0.034,0.2067,0.0015,140.000,45.001,34237.67274,1.93653,406.356,33.923,45.067,45.000,0.00,0.09,-272.70,-272.76,-1,966,-2,20.6,6.5,-17.3,20.9,6.4,-17.2,5.73,1.96,-14.8,27.1
2015-03-11 01:00:00,0.0,1.93254,0.00033,405.314,0.025,0.2079,0.0018,139.999,45.000,34237.14789,1.93649,406.332,33.941,45.067,45.000,0.00,0.09,-272.70,-272.76,-2,965,-2,20.6,6.5,-17.2,20.9,6.5,-17.1,5.73,1.97,-14.8,27.1
2015-03-11 01:01:00,0.0,1.93217,0.00036,405.346,0.033,0.2096,0.0022,140.000,45.000,34237.53622,1.93621,406.374,33.996,45.067,45.000,0.00,0.09,-272.69,-272.75,-1,966,-2,20.6,6.6,-17.1,20.9,6.5,-17.0,5.73,1.98,-14.8,27.1
2015-03-11 01:02:00,0.0,1.93225,0.00028,405.296,0.026,0.2112,0.0019,140.001,45.000,34241.19790,1.93629,406.330,34.040,45.067,45.000,0.00,0.09,-272.70,-272.76,-1,964,-2,20.7,6.6,-17.1,20.9,6.6,-17.0,5.73,2.01,-14.8,27.1
2015-03-11 01:03:00,0.0,1.93245,0.00048,405.314,0.028,0.2109,0.0020,139.998,45.000,34240.51764,1.93644,406.346,34.064,45.067,45.000,0.00,0.09,-272.71,-272.76,-1,966,-2,20.6,6.6,-17.0,20.9,6.6,-16.9,5.73,2.01,-14.8,27.1
2015-03-11 01:04:00,0.0,1.93245,0.00035,405.319,0.026,0.2113,0.0011,139.999,45.000,34239.57615,1.93653,406.354,34.063,45.067,45.000,0.00,0.09,-272.69,-272.75,-1,964,-2,20.6,6.6,-17.0,20.9,6.6,-17.0,5.73,2.03,-14.8,27.1
2015-03-11 01:05:00,0.0,1.93238,0.00032,405.308,0.038,0.2115,0.0015,139.998,45.000,34239.96734,1.93642,406.344,34.065,45.067,45.000,0.00,0.09,-272.70,-272.76,-2,965,-2,20.6,6.6,-17.0,20.9,6.6,-16.9,5.73,2.02,-14.8,27.1
2015-03-11 01:06:00,0.0,1.93251,0.00052,405.325,0.045,0.2114,0.0009,140.002,45.000,34239.06471,1.93651,406.361,34.070,45.068,45.000,0.00,0.09,-272.70,-272.76,-1,966,-2,20.6,6.6,-17.0,20.9,6.6,-16.9,5.73,2.01,-14.8,27.1
2015-03-11 01:07:00,0.0,1.93261,0.00028,405.319,0.032,0.2119,0.0014,140.000,45.000,34238.92651,1.93669,406.358,34.108,45.068,45.000,0.00,0.09,-272.69,-272.76,-1,963,-2,20.6,6.6,-17.0,20.9,6.6,-16.9,5.73,1.99,-14.8,27.1
2015-03-11 01:08:00,0.0,1.93281,0.00025,405.334,0.022,0.2118,0.0016,140.000,45.000,34238.59894,1.93686,406.371,34.124,45.068,45.000,0.00,0.09,-272.70,-272.75,-2,966,-2,20.7,6.6,-17.1,20.9,6.6,-16.9,5.73,1.98,-14.8,27.2
2015-03-11 01:09:00,0.0,1.93211,0.00041,405.333,0.036,0.2116,0.0018,140.003,45.001,34240.66253,1.93619,406.371,34.152,45.068,45.000,0.00,0.09,-272.70,-272.76,-2,965,-3,20.7,6.6,-17.1,21.0,6.6,-16.9,5.73,1.95,-14.8,27.2
2015-03-11 01:10:00,0.0,1.93241,0.00035,405.315,0.026,0.2116,0.0017,140.001,45.000,34241.74009,1.93642,406.352,34.188,45.068,45.000,0.00,0.09,-272.70,-272.75,2,964,0,20.7,6.6,-17.0,21.0,6.6,-16.9,5.73,1.96,-14.8,27.2
2015-03-11 01:11:00,0.0,1.93276,0.00052,405.343,0.033,0.2126,0.0017,139.998,45.000,34239.65058,1.93684,406.385,34.193,45.068,45.000,0.00,0.09,-272.70,-272.75,1,964,-3,20.7,6.6,-17.0,21.0,6.6,-16.9,5.73,1.97,-14.8,27.2
2015-03-11 01:12:00,0.0,1.93279,0.00034,405.340,0.045,0.2112,0.0022,140.005,45.001,34242.62795,1.93683,406.374,34.196,45.067,45.000,0.00,0.09,-272.70,-272.76,-1,963,-3,20.7,6.6,-17.0,21.0,6.6,-16.9,5.73,1.98,-14.8,27.1
2015-03-11 01:13:00,0.0,1.93290,0.00037,405.355,0.029,0.2109,0.0017,139.999,45.000,34238.86956,1.93691,406.388,34.214,45.068,45.000,0.00,0.09,-272.70,-272.76,-0,962,-2,20.7,6.6,-17.1,21.0,6.5,-16.9,5.73,2.02,-14.8,27.2
2015-03-11 01:14:00,0.0,1.93296,0.00020,405.365,0.037,0.2108,0.0020,139.997,45.000,34236.74782,1.93700,406.399,34.248,45.068,45.000,0.00,0.09,-272.69,-272.75,-1,964,-2,20.7,6.5,-17.1,21.0,6.5,-17.0,5.73,2.03,-14.8,27.2
2015-03-11 01:15:00,0.0,1.93289,0.00041,405.358,0.035,0.2097,0.0019,140.003,45.000,34238.50057,1.93690,406.385,34.250,45.068,45.000,0.00,0.09,-272.70,-272.75,-1,964,-2,20.7,6.6,-17.1,21.0,6.5,-17.0,5.73,2.02,-14.8,27.2
2015-03-11 01:16:00,0.0,1.93270,0.00035,405.351,0.028,0.2111,0.0022,139.999,45.000,34237.61543,1.93673,406.384,34.262,45.067,45.000,0.00,0.09,-272.70,-272.76,0,964,-2,20.7,6.6,-17.1,21.0,6.5,-17.0,5.73,2.00,-14.9,27.2
2015-03-11 01:17:00,0.0,1.93282,0.00037,405.381,0.025,0.2111,0.0016,139.999,45.000,34237.50776,1.93686,406.416,34.312,45.067,45.000,0.00,0.09,-272.70,-272.75,-0,962,-2,20.7,6.6,-17.1,21.0,6.5,-16.9,5.73,1.97,-14.8,27.2
2015-03-11 01:18:00,0.0,1.93273,0.00038,405.380,0.028,0.2103,0.0012,140.000,45.000,34237.54283,1.93674,406.410,34.313,45.067,45.000,0.00,0.09,-272.70,-272.75,-1,963,-2,20.7,6.5,-17.1,21.0,6.5,-17.0,5.73,1.95,-14.9,27.3
2015-03-11 01:19:00,0.0,1.93282,0.00033,405.386,0.027,0.2086,0.0012,140.001,45.000,34235.28547,1.93680,406.409,34.346,45.067,45.000,0.00,0.09,-272.70,-272.76,-1,964,-2,20.8,6.5,-17.2,21.1,6.5,-17.1,5.73,1.94,-14.8,27.2
2015-03-11 01:20:00,0.0,1.93312,0.00031,405.408,0.038,0.2067,0.0019,140.004,45.000,34233.21872,1.93707,406.421,34.372,45.067,45.000,0.00,0.09,-272.70,-272.76,0,963,-2,20.8,6.4,-17.3,21.0,6.4,-17.1,5.73,1.96,-14.9,27.2
2015-03-11 01:21:00,0.0,1.93312,0.00026,405.368,0.034,0.2060,0.0016,140.002,45.000,34231.01977,1.93704,406.378,34.380,45.067,45.000,0.00,0.09,-272.69,-272.75,-0,962,-2,20.8,6.4,-17.4,21.1,6.4,-17.2,5.73,2.01,-14.8,27.2
2015-03-11 01:22:00,0.0,1.93285,0.00044,405.388,0.037,0.2054,0.0018,139.998,45.001,34230.14401,1.93680,406.392,34.396,45.067,45.000,0.00,0.09,-272.70,-272.76,0,961,-3,20.8,6.4,-17.4,21.1,6.3,-17.3,5.73,2.04,-14.9,27.3
2015-03-11 01:23:00,0.0,1.93299,0.00037,405.400,0.027,0.2050,0.0016,140.000,45.000,34230.11860,1.93691,406.404,34.403,45.067,45.000,0.00,0.09,-272.70,-272.76,-1,962,-2,20.8,6.4,-17.4,21.1,6.3,-17.3,5.73,2.03,-14.8,27.3
2015-03-11 01:24:00,0.0,1.93282,0.00041,405.391,0.032,0.2071,0.0017,139.996,45.000,34228.43427,1.93675,406.406,34.403,45.068,45.000,0.00,0.09,-272.70,-272.75,-1,963,-2,20.8,6.4,-17.4,21.1,6.3,-17.2,5.73,1.98,-14.8,27.3
2015-03-11 01:25:00,0.0,1.93314,0.00028,405.410,0.037,0.2073,0.0017,140.002,45.000,34225.49925,1.93710,406.424,34.386,45.068,45.000,0.00,0.09,-272.70,-272.75,-1,963,-2,20.8,6.4,-17.3,21.1,6.4,-17.2,5.73,1.94,-14.8,27.3
2015-03-11 01:26:00,0.0,1.93314,0.00032,405.415,0.036,0.2062,0.0018,140.000,45.000,34224.36101,1.93710,406.427,34.382,45.068,45.001,0.00,0.09,-272.70,-272.76,-1,963,-2,20.8,6.4,-17.4,21.1,6.3,-17.2,5.73,1.93,-14.9,27.3
2015-03-11 01:27:00,0.0,1.93350,0.00039,405.431,0.036,0.2036,0.0015,140.000,45.000,34223.21363,1.93737,406.428,34.397,45.068,45.001,0.00,0.09,-272.70,-272.75,-1,963,-2,20.9,6.3,-17.5,21.1,6.3,-17.3,5.73,1.98,-14.8,27.3
2015-03-11 01:28:00,0.0,1.93353,0.00044,405.452,0.032,0.2007,0.0014,140.003,45.000,34223.03851,1.93737,406.434,34.433,45.068,45.001,0.00,0.09,-272.69,-272.75,-1,963,-2,20.8,6.2,-17.7,21.1,6.2,-17.5,5.73,2.02,-14.8,27.3
2015-03-11 01:29:00,0.0,1.93340,0.00040,405.465,0.034,0.1995,0.0015,139.998,45.000,34221.32977,1.93722,406.444,34.438,45.068,45.000,0.00,0.09,-272.70,-272.76,-1,962,-3,20.9,6.2,-17.8,21.1,6.1,-17.6,5.73,2.01,-14.8,27.3
2015-03-11 01:30:00,0.0,1.93343,0.00024,405.464,0.023,0.1997,0.0012,139.999,45.000,34221.43830,1.93724,406.441,34.437,45.068,45.000,0.00,0.09,-272.70,-272.76,-1,962,-3,20.9,6.1,-17.8,21.1,6.1,-17.7,5.73,1.96,-14.8,27.3
2015-03-11 01:31:00,0.0,1.93323,0.00046,405.465,0.027,0.1984,0.0020,140.004,45.000,34223.32525,1.93702,406.436,34.441,45.067,45.000,0.00,0.09,-272.70,-272.75,-2,963,-3,20.9,6.1,-17.9,21.2,6.1,-17.7,5.73,1.91,-14.8,27.3
2015-03-11 01:32:00,0.0,1.93309,0.00038,405.451,0.028,0.1984,0.0014,140.003,45.000,34223.86402,1.93690,406.425,34.461,45.067,45.000,0.00,0.09,-272.70,-272.76,-1,962,-3,20.9,6.1,-17.9,21.2,6.0,-17.8,5.73,1.92,-14.8,27.3
2015-03-11 01:33:00,0.0,1.93314,0.00038,405.441,0.031,0.1989,0.0015,140.002,45.000,34223.69235,1.93693,406.415,34.487,45.067,45.000,0.00,0.09,-272.70,-272.76,-1,962,-3,20.9,6.1,-17.8,21.2,6.0,-17.7,5.73,1.99,-14.8,27.4
2015-03-11 01:34:00,0.0,1.93282,0.00030,405.412,0.034,0.1997,0.0016,140.006,45.000,34227.25105,1.93667,406.390,34.502,45.067,45.000,0.00,0.09,-272.70,-272.76,-2,963,-3,20.9,6.1,-17.7,21.2,6.1,-17.7,5.73,2.03,-14.8,27.4
2015-03-11 01:35:00,0.0,1.93268,0.00037,405.399,0.031,0.2007,0.0018,140.002,45.000,34226.98477,1.93652,406.383,34.503,45.067,45.000,0.00,0.09,-272.70,-272.75,-1,962,-3,20.9,6.2,-17.7,21.2,6.1,-17.6,5.73,1.98,-14.8,27.4
2015-03-11 01:36:00,0.0,1.93288,0.00035,405.416,0.035,0.2014,0.0019,140.001,45.000,34225.25153,1.93672,406.401,34.503,45.067,45.000,0.00,0.09,-272.70,-272.76,-1,962,-3,20.9,6.2,-17.7,21.2,6.1,-17.6,5.73,1.91,-14.8,27.4
2015-03-11 01:37:00,0.0,1.93269,0.00038,405.414,0.035,0.2017,0.0019,140.000,45.000,34225.64902,1.93653,406.403,34.502,45.067,45.000,0.00,0.09,-272.70,-272.75,-2,963,-3,20.9,6.2,-17.6,21.2,6.1,-17.6,5.73,1.90,-14.8,27.4
2015-03-11 01:38:00,0.0,1.93289,0.00044,405.434,0.035,0.2027,0.0020,140.001,45.000,34226.22634,1.93678,406.427,34.494,45.067,45.000,0.00,0.09,-272.70,-272.75,-2,962,-3,20.9,6.2,-17.6,21.2,6.1,-17.5,5.73,1.96,-14.8,27.4
2015-03-11 01:39:00,0.0,1.93273,0.00039,405.436,0.032,0.2027,0.0019,140.000,45.000,34227.23948,1.93661,406.430,34.459,45.067,45.000,0.00,0.09,-272.70,-272.76,-2,962,-3,21.0,6.2,-17.6,21.2,6.2,-17.5,5.73,2.03,-14.8,27.4
2015-03-11 01:40:00,0.0,1.93288,0.00042,405.442,0.033,0.2023,0.0021,140.001,45.000,34226.37356,1.93673,406.433,34.442,45.067,45.000,0.00,0.09,-272.70,-272.76,-2,963,-3,21.0,6.2,-17.5,21.2,6.2,-17.5,5.73,2.01,-14.8,27.4
2015-03-11 01:41:00,0.0,1.93296,0.00039,405.467,0.037,0.2030,0.0013,139.999,45.000,34224.36260,1.93683,406.462,34.437,45.068,45.000,0.00,0.09,-272.69,-272.76,-2,963,-3,21.0,6.2,-17.6,21.2,6.2,-17.5,5.73,1.94,-14.8,27.5
2015-03-11 01:42:00,0.0,1.93303,0.00035,405.448,0.048,0.2021,0.0011,140.002,45.000,34226.00092,1.93690,406.438,34.439,45.068,45.000,0.00,0.09,-272.69,-272.76,-2,963,-3,21.0,6.2,-17.6,21.2,6.1,-17.5,5.73,1.90,-14.8,27.5
2015-03-11 01:43:00,0.0,1.93303,0.00029,405.442,0.027,0.2035,0.0014,140.001,45.000,34226.03473,1.93693,406.440,34.453,45.068,45.000,0.00,0.09,-272.70,-272.76,-2,963,-3,21.0,6.2,-17.6,21.3,6.2,-17.5,5.73,1.95,-14.8,27.4
2015-03-11 01:44:00,0.0,1.93330,0.00036,405.451,0.025,0.2036,0.0020,139.999,45.000,34226.52207,1.93718,406.447,34.459,45.068,45.000,0.00,0.09,-272.69,-272.75,-2,963,-3,21.0,6.2,-17.6,21.3,6.1,-17.5,5.73,2.01,-14.8,27.5
2015-03-11 01:45:00,0.0,1.93328,0.00039,405.446,0.035,0.2039,0.0014,140.001,45.000,34232.49997,1.93719,406.446,34.497,45.067,45.000,0.00,0.09,-272.69,-272.75,-2,964,-3,21.0,6.2,-17.6,21.3,6.1,-17.5,5.73,2.03,-14.8,27.5
2015-03-11 01:46:00,0.0,1.93314,0.00036,405.439,0.033,0.2032,0.0020,139.997,45.000,34230.34036,1.93699,406.434,34.500,45.067,45.000,0.00,0.09,-272.70,-272.76,-1,964,-3,21.0,6.2,-17.6,21.3,6.2,-17.5,5.73,1.97,-14.8,27.5